Zurück zum Katalog

STARLINK-5627

AktivKommunikationVLEO
NORAD 55364·PAYLOAD·🇺🇸 United States

Gestartet Jan 26, 2023 von Cape Canaveral Space Force Station

Loading…

Nächste Überflüge (nächste 24 Stunden)

TLE

AktuellSource: CelesTrak SupGP

Epoche: Sep 14, 2026, 21:56 UTC

1 55364C 23013AK  26257.91437500 -.00029316  00000+0 -10618-2 0  2570
2 55364  43.0010 318.1561 0001597 265.3670  77.0230 15.27593125    19

Verfolge STARLINK-5627 in Echtzeit mit AllMySat

Download on the App Store